Location: Songkhla
(7.2000°N, 100.6000°E)
Time: 04:03:27
(UTC+07:00)

BRICSAT 2 - Pass Details

Date: 19 June 2021
Orbit: 295 x 638 km, 28.5° (Epoch: 28 July)

Event Time Altitude Azimuth Distance (km) Brightness Sun altitude
Rises 20:52:55 0° 313° (NW) 2,695 ? -31.1°
Reaches altitude 10° 20:55:16 10° 323° (NW) 1,862 ? -31.6°
Enters shadow 20:57:05 22° 339° (NNW) 1,305 ? -32.0°
Maximum altitude 20:59:15 34° 28° (NNE) 1,004 - -32.4°
Drops below altitude 10° 21:03:33 10° 93° (E) 2,013 - -33.3°
Sets 21:06:10 0° 102° (ESE) 2,950 - -33.8°
